Location: Gadern
(49.5873°N, 8.8138°E)
Time: 01:10:04
(UTC+00:00)

Cosmos 1812 Rocket - Pass Details

Date: 19 May 2025
Orbit: 601 x 624 km, 82.5° (Epoch: 15 June)

Event Time Altitude Azimuth Distance (km) Brightness Sun altitude
Exits shadow 20:48:58 17° 165° (SSE) 1,516 5.0 -12.7°
Maximum altitude 20:52:01 51° 95° (E) 759 3.7 -13.0°
Drops below altitude 10° 20:56:13 10° 19° (NNE) 1,959 6.6 -13.4°
Sets 20:58:29 0° 14° (NNE) 2,869 7.6 -13.6°
